Volver al catálogo

ONEWEB-0117

ActivoComunicacionesPO
NORAD 47263·PAYLOAD·🇬🇧 United Kingdom

Lanzado Dec 18, 2020 desde Vostochny Cosmodrome

Loading…

Próximos Pases (próximas 24 horas)

TLE

ActualizadoSource: CelesTrak SupGP

Época: Sep 14, 2026, 23:06 UTC

1 47263C 20100F   26257.96303657  .00000200  00000+0  55713-3 0  2578
2 47263  87.8996 332.8302 0001936 100.1791 306.3093 13.12445725    19

Sigue ONEWEB-0117 en tiempo real con AllMySat

Download on the App Store